CAPE
1003 1054 1062 1071 1094 1112 1110 1105 1110 1074 1049 1026 1014 1014 1004 980 959 912 872 834 789 884 1033 1141 1232 1317 1462 1608 1638 1680 1805 1975 2122 2315 2412 2449 2445 2436 2399 2328 2397 2467 2507 2606 2696 2766 2730 2582 2505 2491 2482 2481 2340 2059 1718 1076 356 46 19 6 18 3 1 2 37 88 126 1 2 24 35 0 20 69 184 217 263 335 350 476 468 344 313 383 457
1018 1069 1073 1081 1105 1110 1113 1125 1116 1102 1073 1067 1057 1038 1027 994 971 937 889 856 917 997 1055 1130 1206 1258 1360 1506 1624 1661 1745 1865 2015 2174 2315 2356 2397 2296 2345 2292 2314 2330 2352 2417 2506 2595 2712 2627 2512 2470 2406 2425 2405 2286 2108 1896 1260 268 172 47 54 19 0 38 12 54 183 73 32 76 128 38 203 100 77 162 184 273 282 413 394 334 290 224 216
1019 1082 1109 1116 1128 1127 1119 1112 1121 1118 1108 1097 1093 1089 1068 1018 960 954 934 907 1027 1082 1119 1146 1243 1282 1320 1411 1527 1628 1720 1810 1920 2088 2199 2274 2328 2316 2312 2322 2270 2262 2264 2299 2343 2414 2520 2547 2544 2508 2379 2354 2345 2307 2184 2072 1849 1406 626 254 255 192 26 5 80 130 132 268 149 83 112 190 172 381 139 114 211 259 254 277 261 328 318 262 205
1022 1083 1138 1157 1156 1148 1141 1132 1126 1137 1146 1124 1130 1119 1088 1046 980 1042 1055 964 1043 1207 1208 1223 1276 1319 1345 1404 1423 1551 1653 1766 1881 2013 2135 2199 2232 2276 2281 2266 2296 2280 2268 2246 2247 2290 2344 2384 2414 2454 2364 2264 2234 2250 2172 2120 2012 1766 1461 842 361 390 248 6 5 181 329 306 360 170 194 511 529 479 467 231 336 358 370 329 239 238 298 339 304
1000 1072 1132 1174 1191 1196 1195 1163 1156 1160 1160 1156 1158 1132 1094 1060 1003 966 1120 1166 1128 1184 1343 1349 1366 1388 1401 1435 1447 1466 1561 1676 1790 1926 2076 2154 2190 2237 2246 2240 2271 2298 2302 2289 2214 2237 2266 2277 2297 2318 2286 2222 2123 2065 2098 2074 2042 1912 1731 1368 951 523 352 242 148 60 111 232 388 329 505 578 629 658 622 588 528 499 472 482 482 466 455 360 230
981 1036 1099 1158 1206 1226 1238 1217 1196 1182 1182 1181 1170 1138 1099 1058 1030 996 1068 1213 1287 1280 1318 1444 1482 1512 1525 1538 1528 1504 1509 1581 1700 1842 1974 2122 2208 2237 2272 2274 2267 2291 2299 2298 2274 2223 2235 2237 2256 2274 2270 2259 2117 1993 1945 1899 1941 1926 1850 1674 1422 1141 824 442 367 318 206 276 374 460 377 509 562 644 697 679 660 616 561 553 533 529 498 481 435
951 994 1048 1115 1172 1218 1249 1251 1228 1202 1192 1192 1166 1153 1130 1093 1064 1038 1040 1138 1249 1358 1374 1422 1543 1590 1624 1647 1654 1647 1586 1545 1655 1754 1865 1998 2151 2265 2296 2312 2324 2308 2291 2282 2200 2203 2225 2240 2240 2222 2214 2186 2106 1983 1882 1844 1808 1782 1726 1680 1590 1416 1302 1166 902 596 433 439 504 480 466 470 423 459 532 593 609 600 586 548 513 466 434 421 414
939 982 1026 1076 1134 1174 1210 1217 1214 1199 1186 1184 1180 1162 1135 1113 1094 1066 1045 1190 1225 1300 1410 1431 1513 1606 1631 1650 1724 1757 1728 1678 1652 1750 1843 1946 2066 2181 2267 2310 2309 2312 2327 2333 2244 2227 2242 2250 2251 2231 2198 2138 2062 1977 1874 1806 1728 1686 1616 1572 1518 1457 1387 1288 1156 1048 957 827 664 582 531 581 543 372 382 432 468 488 445 403 400 435 432 418 344
986 1009 1045 1082 1116 1141 1152 1165 1168 1172 1171 1180 1177 1155 1149 1134 1126 1114 1090 1103 1247 1306 1376 1460 1494 1549 1629 1676 1707 1737 1762 1788 1780 1783 1825 1930 2062 2147 2218 2291 2322 2340 2339 2318 2262 2244 2256 2265 2256 2246 2212 2151 2079 2007 1937 1848 1772 1674 1577 1483 1426 1372 1340 1297 1227 1130 1020 931 845 756 670 578 519 552 585 398 315 354 554 244 345 369 399 380 329
1075 1077 1102 1132 1183 1188 1167 1175 1179 1190 1191 1200 1180 1166 1163 1172 1168 1157 1140 1119 1136 1281 1332 1429 1502 1560 1602 1684 1733 1736 1762 1813 1784 1730 1732 1916 1977 2077 2144 2221 2306 2353 2384 2369 2320 2268 2255 2258 2266 2231 2206 2185 2152 2110 2063 2012 1961 1891 1790 1648 1522 1438 1355 1285 1202 1136 1050 995 928 864 810 713 647 586 546 494 430 440 328 319 291 322 335 360 360
1174 1160 1162 1149 1192 1317 1341 1316 1247 1268 1257 1229 1220 1216 1214 1210 1207 1204 1190 1175 1159 1164 1296 1303 1409 1540 1624 1651 1724 1762 1799 1802 1714 1730 1789 1817 1859 2043 2093 2159 2228 2361 2390 2364 2411 2399 2385 2378 2414 2314 2234 2243 2244 2228 2206 2162 2132 2094 2032 1951 1872 1798 1694 1591 1499 1378 1258 1176 1118 1067 993 895 849 836 810 784 707 658 606 550 510 501 509 523 554
1378 1402 1368 1362 1386 1413 1447 1491 1489 1414 1317 1311 1292 1284 1278 1278 1288 1283 1276 1282 1298 1277 1224 1195 1281 1377 1496 1624 1694 1734 1796 1717 1740 1763 1784 1822 1857 1958 2092 2124 2173 2272 2347 2422 2458 2448 2458 2413 2388 2404 2467 2331 2275 2275 2268 2269 2262 2245 2201 2149 2121 2078 2037 1954 1824 1736 1614 1461 1374 1309 1188 1121 1025 971 959 922 856 845 904 916 902 874 910 945 993
1597 1597 1583 1584 1581 1555 1576 1624 1637 1614 1558 1496 1396 1386 1389 1390 1387 1382 1388 1392 1414 1458 1436 1325 1251 1220 1325 1442 1553 1672 1784 1662 1725 1794 1842 1856 1876 1874 1884 2060 2175 2213 2294 2382 2469 2455 2484 2478 2498 2506 2473 2254 2258 2274 2274 2258 2256 2247 2252 2220 2222 2229 2232 2207 2153 2068 1944 1805 1667 1549 1496 1412 1370 1312 1258 1368 1538 1618 1632 1659 1554 1581 1618 1642 1648
1806 1793 1800 1809 1794 1764 1758 1756 1774 1778 1762 1721 1675 1556 1542 1540 1518 1516 1522 1538 1573 1601 1598 1562 1450 1334 1283 1258 1382 1442 1548 1594 1664 1730 1786 1853 1910 1921 1918 1925 2113 2205 2280 2341 2425 2500 2530 2532 2614 2560 2542 2494 2376 2287 2310 2333 2302 2288 2287 2266 2241 2264 2270 2249 2237 2209 2152 2022 1906 1844 1799 1852 1999 2095 2205 2353 2504 2468 2411 2322 2225 2165 2148 2104 2047
2015 2031 2046 2043 2030 2008 1977 1947 1927 1928 1934 1914 1898 1849 1738 1706 1696 1704 1699 1715 1761 1810 1843 1823 1757 1628 1462 1340 1300 1273 1259 1311 1449 1598 1702 1773 1824 1868 1936 1949 1941 2188 2300 2353 2396 2438 2494 2554 2586 2649 2608 2605 2516 2464 2439 2428 2334 2324 2367 2248 2236 2223 2209 2273 2294 2295 2267 2144 2299 2368 2432 2480 2592 2738 2784 2682 2690 2679 2653 2568 2464 2286 2287 2295 2254
2214 2240 2268 2248 2251 2229 2202 2166 2134 2134 2107 2089 2076 2047 1927 1911 1900 1886 1925 2019 2084 2153 2189 2179 2132 2042 1918 1738 1560 1379 1332 1298 1291 1345 1511 1657 1735 1780 1838 1878 1887 1972 2185 2287 2374 2450 2474 2512 2561 2578 2628 2624 2456 2383 2383 2417 2508 2392 2354 2307 2264 2316 2350 2391 2472 2525 2546 2570 2540 2537 2660 2672 2679 2722 2844 2842 2767 2749 2568 2195 2303 2122 2096 1983 2065
2319 2417 2458 2439 2450 2435 2408 2368 2357 2343 2316 2280 2254 2184 2104 2099 2047 2129 2228 2293 2379 2429 2458 2441 2425 2379 2314 2222 2080 1927 1709 1521 1414 1362 1356 1460 1577 1668 1756 1780 1801 1828 1950 2109 2243 2333 2404 2468 2497 2553 2620 2606 2375 2377 2395 2403 2393 2352 2351 2324 2381 2382 2421 2426 2580 2679 2714 2641 2566 2540 2525 2432 2510 2722 2834 2714 2594 2288 2108 1860 2069 2180 1887 2030 2108
2276 2442 2529 2568 2604 2588 2575 2569 2558 2540 2514 2485 2447 2292 2289 2324 2381 2441 2490 2550 2623 2672 2732 2760 2754 2700 2637 2548 2414 2305 2148 2032 1844 1636 1447 1416 1442 1534 1581 1642 1680 1723 1766 1935 2078 2203 2316 2128 2300 2504 2526 2551 2326 2330 2354 2368 2376 2392 2444 2354 2326 2303 2392 2307 2305 2350 2520 2477 2394 2386 2308 2297 2393 2356 2285 2274 2322 2205 1866 1797 1972 1781 1744 1827 1980
2228 2384 2528 2588 2659 2705 2698 2709 2697 2612 2470 2572 2632 2687 2706 2731 2752 2795 2815 2821 2876 2928 2992 3026 3027 3006 2954 2890 2768 2691 2560 2430 2271 2081 1863 1616 1476 1486 1530 1568 1592 1643 1708 1836 1940 2080 2210 2115 2077 2126 2370 2410 2289 2299 2335 2354 2391 2401 2380 2352 2418 2495 2578 2525 2458 2412 2266 2540 2652 2653 2644 2436 2271 2182 2293 2430 2354 2125 1911 1861 1952 2049 2105 2105 2234
2178 2339 2484 2635 2741 2797 2822 2868 2843 2552 2634 2700 2772 2812 2850 2902 2938 2961 2999 2986 3015 3030 3076 3163 3225 3252 3236 3163 3084 2966 2858 2730 2563 2379 2186 1969 1738 1554 1582 1597 1627 1663 1722 1792 1976 2031 2136 2270 2164 2095 2154 2204 2250 2297 2328 2353 2377 2506 2533 2502 2529 2601 2669 2817 3162 3114 2998 3039 2927 2841 2831 2684 2460 2342 2544 2651 2594 2444 2392 2492 2615 2569 2284 2474 2359
2249 2438 2581 2710 2836 2970 3010 3015 3026 2995 2704 2775 2865 2912 2954 2970 3008 3057 3086 3126 3139 3167 3202 3252 3305 3348 3371 3375 3352 3280 3162 3020 2840 2646 2465 2291 2096 1892 1715 1678 1689 1721 1822 1844 1994 2112 2228 2302 2360 2111 2131 2169 2137 2317 2492 2618 2701 2717 2699 2681 2818 2870 3089 3068 3037 2822 2977 3035 2831 2682 2832 2790 2752 2713 2741 2903 3054 3016 2837 2519 2234 1936 1650 1638 1620
2297 2477 2716 2896 2983 3104 3182 3244 3262 3213 3093 2923 3013 3046 3068 3082 3110 3142 3166 3185 3230 3260 3307 3349 3384 3420 3434 3454 3458 3431 3386 3290 3134 2948 2769 2657 2530 2377 2188 2022 1918 1820 1931 2035 2143 2173 2209 2297 2331 2179 2172 2399 2611 2737 2852 2918 2942 2963 3066 2970 3030 3250 3406 2967 2802 2884 2769 2856 2626 2673 2916 3091 3147 3234 3169 2965 2638 2194 1840 1352 1169 1125 1131 1118 1083
2497 2524 2651 2839 3097 3273 3376 3432 3407 3469 3446 3256 3201 3210 3208 3233 3264 3270 3282 3290 3316 3350 3396 3441 3490 3504 3519 3520 3519 3505 3475 3436 3341 3204 3024 2874 2757 2648 2514 2397 2322 2251 2147 2063 2100 2212 2328 2337 2300 2413 2607 2762 2894 2966 3019 3132 3176 3234 3250 3362 3433 3476 3204 2785 3068 3159 2973 3102 3295 3460 3538 3300 3062 2825 2490 2040 1375 1018 945 989 1075 1215 1098 866 841
3255 2749 2717 2730 2816 3136 3398 3602 3602 3630 3669 3615 3527 3372 3339 3342 3339 3358 3388 3400 3414 3462 3514 3548 3584 3602 3602 3602 3586 3553 3519 3465 3431 3334 3214 3084 2967 2879 2795 2720 2634 2567 2489 2442 2377 2332 2503 2464 2629 2817 2948 3015 3074 3150 3251 3326 3397 3507 3622 3633 3603 3560 3112 2624 2452 3359 3444 3435 3418 3268 3100 2728 2177 1386 627 572 510 566 497 428 482 518 598 695 904
4147 3316 3062 3100 3138 3164 3184 3398 3599 3638 3710 3734 3646 3617 3583 3552 3554 3551 3541 3565 3586 3600 3629 3644 3670 3677 3659 3654 3630 3586 3538 3491 3447 3385 3312 3220 3139 3089 3023 2938 2899 2852 2812 2764 2625 2603 2669 2813 2974 3102 3172 3238 3309 3400 3454 3607 3751 3787 3756 3759 3790 3594 3358 3442 3439 3385 3214 3078 2830 2447 1727 781 462 405 359 326 219 129 34 32 61 70 52 80 144
4487 4451 4193 3525 3226 3086 3058 3152 3236 3494 3579 3657 3722 3723 3703 3702 3699 3699 3668 3675 3674 3680 3698 3692 3702 3698 3698 3684 3666 3634 3592 3548 3489 3433 3385 3367 3328 3297 3270 3202 3160 3139 3071 3010 2946 2914 3023 3182 3276 3281 3287 3372 3509 3580 3642 3710 3781 3830 3793 3772 3787 3722 3550 3282 3169 2984 2675 2132 1102 438 396 297 215 156 80 33 11 6 10 12 12 10 16 24 25
4389 4465 4488 4598 4466 3810 3155 2895 3054 3201 3369 3545 3664 3734 3754 3774 3768 3760 3735 3707 3694 3706 3708 3706 3702 3703 3702 3683 3671 3648 3622 3594 3551 3512 3478 3469 3514 3518 3503 3480 3488 3471 3434 3371 3266 3217 3238 3376 3398 3429 3477 3567 3576 3621 3761 3806 3781 3736 3814 3708 3587 3392 3244 3110 2676 2024 660 142 125 39 35 12 1 0 2 4 3 3 6 10 11 9 11 14 18
4355 4475 4545 4544 4520 4358 4252 3901 3402 3040 3201 3368 3533 3650 3748 3784 3790 3798 3762 3713 3688 3682 3667 3665 3652 3645 3629 3630 3618 3614 3620 3600 3604 3608 3619 3649 3698 3695 3703 3742 3776 3780 3738 3686 3542 3433 3439 3491 3489 3497 3534 3596 3780 3937 3846 3846 3942 3854 3650 3429 3328 3124 2730 2076 635 2 2 1 1 0 0 0 0 1 4 3 2 2 4 7 9 12 8 12 11
4384 4479 4554 4642 4603 4486 4362 4216 3846 3510 3220 3286 3426 3581 3712 3764 3800 3822 3802 3800 3736 3679 3622 3600 3595 3572 3554 3550 3538 3550 3620 3691 3777 3860 3960 3939 3916 3962 3991 4022 4059 4042 3967 3837 3721 3606 3602 3655 3644 3728 3833 3916 3899 4020 4024 3915 3630 3437 3372 3345 3008 2174 954 0 0 0 0 0 0 0 0 2 2 2 3 2 1 2 2 5 6 8 8 10 9
4346 4430 4534 4645 4661 4657 4507 4332 4000 3712 3438 3393 3415 3490 3555 3666 3800 3810 3864 3834 3809 3824 3742 3707 3668 3642 3653 3746 3828 3910 4027 4131 4162 4180 4182 4148 4148 4164 4231 4236 4193 4115 4022 3910 3809 3737 3891 4022 4050 4049 4070 4054 4003 3852 3645 3461 3399 3318 2853 2191 1450 234 1 2 2 1 2 2 2 2 1 2 1 0 0 2 1 1 1 2 3 6 7 6 9
3748 4091 4372 4512 4634 4630 4708 4542 4260 3988 3743 3546 3522 3591 3523 3518 3687 3808 3836 3848 3880 3869 3842 3852 3831 3811 3836 3976 4134 4251 4367 4391 4438 4406 4396 4394 4430 4413 4334 4304 4266 4232 4138 3998 3960 4059 4082 4062 3956 3857 3828 3738 3635 3508 3414 3421 3238 2451 1840 603 0 0 1 1 1 2 1 1 1 1 0 0 0 1 0 1 2 2 2 3 5 6 7 8 7
3403 3582 3788 4252 4490 4625 4643 4689 4664 4452 4205 3897 3764 3707 3702 3681 3534 3696 3839 3924 3902 3934 3984 3986 3993 4022 4101 4237 4376 4499 4609 4684 4730 4674 4636 4587 4545 4524 4494 4423 4367 4322 4238 4125 4027 4027 3960 3907 3868 3775 3664 3566 3480 3405 3405 2935 2057 1004 66 0 0 0 0 0 0 0 0 0 0 0 0 0 0 0 0 1 1 1 2 2 3 3 3 4 7
2984 3258 3486 3635 4002 4358 4514 4659 4646 4696 4651 4414 4162 3956 3900 3817 3834 3749 3747 3939 4050 4129 4142 4179 4251 4321 4423 4540 4623 4701 4832 4912 4872 4823 4776 4692 4650 4616 4590 4599 4516 4404 4310 4190 4054 3999 3897 3749 3628 3550 3432 3388 3396 2826 1805 1330 251 0 0 0 0 0 0 0 0 0 0 0 0 0 0 0 0 0 0 0 1 0 1 1 1 2 4 4 3
2580 3002 3303 3472 3608 3843 4093 4405 4602 4643 4636 4697 4620 4381 4153 4037 4031 3947 3968 3903 4061 4295 4405 4488 4533 4594 4689 4788 4848 4939 5010 5027 5000 4909 4835 4774 4726 4674 4686 4584 4471 4340 4161 4000 3907 3805 3770 3655 3547 3456 2993 2722 2288 1383 891 0 0 0 0 0 0 0 0 0 0 0 0 0 0 0 0 0 0 0 0 0 1 1 0 1 2 0 2 2 2
2160 2483 3166 3244 3264 3612 3797 3946 4242 4525 4623 4632 4719 4696 4503 4331 4220 4218 4234 4150 4146 4216 4380 4565 4752 4860 4965 5030 5070 5164 5180 5179 5105 4917 4716 4673 4691 4711 4625 4317 4130 3990 3846 3701 3620 3551 3509 3265 2749 2505 2067 1622 1116 114 0 0 0 0 0 0 0 0 0 0 0 0 0 0 0 0 0 0 0 0 0 0 0 0 0 0 2 2 1 2 3
2021 2191 2373 2584 2959 3384 3525 3684 3918 4147 4489 4637 4630 4650 4676 4640 4504 4471 4417 4438 4526 4454 4410 4576 4756 4952 5087 5165 5152 5143 5128 5043 4936 4631 4358 4298 4368 4430 4388 4224 3940 3729 3581 3498 3340 3044 2643 2318 2158 2024 1511 1034 112 0 0 0 0 0 0 0 0 0 0 0 0 0 0 0 0 0 0 0 0 0 0 0 0 0 0 0 1 0 0 1 2
1686 1908 2080 2252 2722 3047 3124 3182 3278 3706 4182 4460 4548 4628 4702 4716 4728 4632 4605 4654 4669 4516 4390 4454 4600 4796 4954 4948 4864 4872 4830 4608 4346 4179 4075 4109 4024 3956 3786 3560 3455 3387 3306 2953 2757 2500 2396 2237 1902 996 192 0 0 0 0 0 0 0 0 0 0 0 0 0 0 0 0 0 0 0 0 0 0 0 0 0 0 0 0 0 0 0 0 0 2
1534 1698 1843 1965 2442 2592 2579 2694 2906 3367 3688 4116 4441 4528 4599 4679 4734 4747 4752 4737 4689 4620 4521 4488 4454 4547 4645 4533 4411 4505 4519 4064 3841 3754 3616 3509 3372 3406 3395 3298 3174 3065 2914 2804 2677 2463 2253 1562 279 0 0 0 0 0 0 0 0 0 0 0 0 0 0 0 0 0 0 0 0 0 0 0 0 0 0 0 0 0 0 0 0 0 0 0 0
1192 1304 1504 1734 2318 2538 2546 2620 2752 2899 3314 3620 4093 4402 4476 4496 4550 4639 4716 4720 4708 4675 4669 4596 4356 4208 4240 4146 4094 4164 3986 3746 3586 3538 3448 3395 3194 2957 2726 2626 2893 2770 2980 2618 2266 1552 750 0 0 0 0 0 0 0 0 0 0 0 0 0 0 0 0 0 0 0 0 0 0 0 0 0 0 0 0 0 0 0 0 0 0 0 0 0 0
1012 1139 1347 1710 2066 2274 2379 2500 2633 2795 2893 3111 3434 3904 4188 4262 4329 4449 4485 4537 4553 4646 4664 4518 4192 4014 3878 3752 3688 3616 3589 3609 3492 3296 2996 2782 2631 2470 2222 1984 1777 1524 1457 1250 993 349 0 0 0 0 0 0 0 0 0 0 0 0 0 0 0 0 0 0 0 0 0 0 0 0 0 0 0 0 0 0 0 0 0 0 0 0 0 0 0
855 981 1190 1502 1768 1892 1990 2160 2280 2479 2670 2835 2990 3234 3645 3970 4149 4212 4224 4342 4469 4633 4617 4280 3962 3852 3790 3796 3644 3419 3245 3186 2840 2517 2412 2165 1874 1730 1742 1630 1527 1432 1194 688 0 0 0 0 0 0 0 0 0 0 0 0 0 0 0 0 0 0 0 0 0 0 0 0 0 0 0 0 0 0 0 0 0 0 0 0 0 0 0 0 0
856 893 1071 1324 1512 1684 1823 1852 1939 2094 2353 2539 2588 2955 3340 3729 3856 4038 4096 4140 4193 4343 4373 4144 3798 3694 3594 3498 3425 3333 3134 2558 2254 2271 2039 1830 1574 1255 976 729 556 156 0 0 0 0 0 0 0 0 0 0 0 0 0 0 0 0 0 0 0 0 0 0 0 0 0 0 0 0 0 0 0 0 0 0 0 0 0 0 0 0 0 0 0
846 854 926 1152 1325 1545 1637 1692 1792 1956 2079 2168 2236 2374 3139 3481 3547 3687 3770 3724 3700 3416 3578 3855 3630 3364 3280 3062 3008 3056 1937 1797 1928 1909 1934 1226 754 183 0 0 0 0 0 0 0 0 0 0 0 0 0 0 0 0 0 0 0 0 0 0 0 0 0 0 0 0 0 0 0 0 0 0 0 0 0 0 0 0 0 0 0 0 0 0 0
847 874 886 1037 1170 1264 1401 1528 1617 1660 1796 1979 2052 2187 2402 2770 3195 3358 3361 3315 3046 2868 2891 3073 3195 3029 2914 2680 2586 2462 2144 1689 1162 943 1122 1001 628 132 0 0 0 0 0 0 0 0 0 0 0 0 0 0 0 0 0 0 0 0 0 0 0 0 0 0 0 0 0 0 0 0 0 0 0 0 0 0 0 0 0 0 0 0 0 0 0
840 857 856 917 1034 1104 1192 1307 1406 1456 1477 1596 1808 1968 2031 2235 2494 2713 2966 2955 2989 2817 2468 2356 2455 2611 2502 1714 1066 820 455 406 759 1124 1260 1094 932 446 0 0 0 0 0 0 0 0 0 0 0 0 0 0 0 0 0 1 1 2 1 0 0 0 0 0 0 0 0 0 0 0 0 0 0 0 0 0 0 0 0 0 0 0 0 0 0
657 702 796 857 937 956 1018 1083 1086 1153 1251 1321 1541 1817 1962 1918 2000 2076 2278 2374 2489 2500 2427 2098 1961 1944 1510 635 392 540 779 842 840 933 904 792 664 244 0 0 0 0 0 0 0 0 0 0 0 0 0 0 0 0 0 0 0 0 1 0 0 0 0 0 0 0 0 0 0 0 0 0 0 0 0 0 0 0 0 0 0 0 0 0 0
464 515 662 809 904 942 966 945 950 1008 1105 1222 1432 1654 1887 1960 2056 2046 2028 2095 2171 2214 2216 2050 1512 1202 681 476 635 719 718 702 705 782 715 606 403 0 0 0 0 0 0 0 0 0 0 0 0 0 0 0 0 0 0 0 0 0 0 0 0 0 0 0 0 0 0 0 0 0 0 0 0 0 0 0 0 0 0 0 0 0 0 0 0
375 448 578 742 796 780 792 804 826 865 966 1115 1268 1468 1741 2022 2082 2022 1912 1832 1923 1975 2013 1358 1063 787 554 788 768 630 530 478 474 508 545 287 0 0 0 0 0 0 0 0 0 0 0 0 0 0 0 0 0 0 0 0 0 0 0 0 0 0 0 0 0 0 0 0 0 0 0 0 0 0 0 0 0 0 0 0 0 0 0 0 0
163 321 434 610 730 756 747 726 776 793 867 998 1158 1367 1632 1778 1765 1690 1581 1518 1589 1538 1562 1359 926 561 641 650 538 479 371 344 352 299 108 0 0 0 1 0 0 0 0 0 0 0 0 0 0 0 0 0 0 0 0 0 0 0 0 0 0 0 0 0 0 0 0 0 0 0 0 0 0 0 0 0 0 0 0 0 0 0 0 0 0
154 351 435 572 695 713 608 622 696 794 827 853 1092 1341 1534 1442 1317 1121 1002 1158 1079 919 953 833 646 369 100 320 377 348 309 317 211 0 0 0 1 1 1 2 4 4 6 7 5 5 4 2 1 1 0 0 0 0 0 0 0 0 0 0 0 0 0 0 0 0 0 0 0 0 0 0 0 0 0 0 0 0 0 0 0 0 0 0 0
0 228 245 256 330 478 565 635 618 652 658 747 803 797 829 676 726 785 709 505 38 25 24 121 286 248 200 0 0 0 7 52 32 0 0 0 0 0 0 2 2 2 1 0 1 2 3 4 4 2 1 1 0 0 0 0 0 0 0 0 0 0 0 0 0 0 0 0 0 0 0 0 0 0 0 0 0 0 0 0 0 0 0 0 0
Wind_Speed
12 14 16 15 15 14 13 14 13 14 13 12 11 11 12 12 11 10 12 8 7 5 4 3 2 1 1 1 1 1 1 1 2 3 3 4 5 6 8 10 10 8 8 9 9 9 11 12 14 15 12 11 8 5 4 4 4 nan nan nan nan nan nan nan nan nan 13 nan nan nan nan nan nan nan 15 15 15 16 19 19 19 20 21 21 22
11 13 15 15 13 14 14 15 15 15 13 13 12 13 13 13 12 13 9 8 8 6 4 5 4 2 3 2 2 2 3 3 5 6 5 5 5 7 8 10 9 8 9 8 9 8 9 11 11 12 14 14 11 8 6 5 4 4 5 nan nan nan nan nan nan nan 17 nan nan nan 9 nan 11 nan nan 15 16 15 17 18 19 20 21 20 21
11 14 15 15 14 15 15 15 15 13 12 13 14 15 16 14 15 12 10 10 9 8 7 6 5 4 4 4 4 4 5 5 6 7 5 5 6 7 8 9 9 9 9 9 8 7 8 8 9 10 11 13 12 10 8 7 5 6 7 6 7 6 nan nan nan 11 13 14 9 nan 11 11 15 14 14 14 14 16 17 19 21 21 22 22 22
13 13 13 14 14 15 14 15 14 13 14 14 14 15 17 17 16 13 12 14 11 11 9 7 7 6 6 6 6 6 7 7 8 8 6 6 5 5 6 7 7 7 8 8 8 7 7 6 7 9 9 11 10 9 8 7 7 6 7 6 6 6 5 nan nan 11 10 13 13 13 11 12 14 15 15 16 17 18 19 19 21 22 23 24 25
14 13 13 13 14 14 13 14 13 12 12 15 14 16 17 18 17 14 14 14 12 13 11 10 9 8 8 7 8 8 7 9 9 9 7 6 5 5 5 5 5 6 6 6 7 7 6 7 7 7 8 9 8 7 7 8 7 6 7 6 6 5 4 7 10 nan 12 15 14 12 12 12 13 14 18 18 18 19 19 21 24 25 25 26 26
13 13 14 13 12 11 12 12 11 12 12 14 15 16 17 16 16 17 15 14 14 14 11 12 10 9 9 8 9 8 8 9 9 9 9 8 6 5 5 5 5 5 5 5 4 5 5 6 5 6 8 10 8 6 6 7 5 6 8 7 5 4 6 8 8 10 11 13 12 11 13 13 13 15 19 21 19 17 19 22 24 27 27 27 30
14 13 13 12 13 11 10 10 12 12 13 13 16 17 17 18 17 16 16 15 15 15 14 12 12 11 9 9 9 9 9 9 10 10 9 9 9 8 8 8 7 7 6 5 4 4 3 4 4 5 7 9 8 6 5 5 4 6 8 8 5 5 7 8 9 10 11 10 9 10 10 15 18 13 18 24 23 23 22 21 23 29 32 32 30
13 13 13 12 12 10 11 12 13 13 15 16 16 16 16 15 15 15 17 15 16 15 15 13 13 12 10 9 8 10 10 10 11 12 11 11 11 11 11 11 10 8 7 6 5 3 3 2 3 5 6 7 7 6 5 6 5 5 7 5 5 7 8 8 9 10 10 10 9 8 10 12 17 19 20 23 23 24 31 31 26 24 29 34 33
13 12 12 11 11 13 14 15 16 16 17 17 16 16 15 15 15 16 16 16 16 16 14 13 11 10 10 10 10 11 10 10 12 13 12 11 12 11 12 11 10 9 8 6 5 4 3 3 2 3 4 5 7 7 7 8 6 7 9 7 7 10 10 10 11 11 11 11 8 9 9 11 14 16 20 24 27 25 30 37 32 30 29 28 29
13 12 11 11 13 15 15 17 17 17 17 16 16 15 15 15 14 14 14 13 14 13 12 11 10 9 10 10 11 12 11 11 11 12 13 12 12 12 11 10 9 9 8 8 5 4 3 3 3 2 3 4 6 8 11 12 12 10 9 8 11 12 13 13 13 13 13 12 13 13 13 12 14 20 21 24 27 29 31 35 34 30 31 30 26
12 11 11 13 15 16 17 16 17 16 16 16 16 15 14 15 14 12 12 12 11 11 10 9 9 10 10 10 12 11 11 11 9 12 12 12 12 12 11 10 10 10 9 7 5 5 5 4 4 2 0 1 4 10 10 12 13 14 15 15 14 14 14 15 14 16 16 16 15 18 18 15 16 22 25 25 29 31 31 34 34 33 33 31 25
11 11 13 16 16 15 16 16 16 16 16 15 15 15 15 14 13 12 12 11 11 11 9 9 9 10 10 11 11 11 9 8 10 11 12 13 12 11 12 12 11 10 9 7 6 6 4 4 5 5 4 1 2 3 7 10 12 13 14 16 16 17 18 17 16 17 19 18 17 20 20 20 18 22 26 30 29 30 33 33 35 36 34 34 34
12 13 14 15 15 15 16 16 15 15 15 15 15 15 13 12 11 11 10 11 12 10 9 10 9 9 10 10 10 9 10 10 12 12 13 14 15 13 11 10 10 9 8 6 5 3 3 5 5 5 4 3 2 3 5 7 11 14 14 15 15 16 17 18 18 19 19 20 20 19 23 23 21 21 27 30 33 32 35 35 38 41 39 37 35
13 14 15 15 15 16 15 14 13 13 14 14 14 13 12 11 11 12 13 14 12 11 10 10 10 10 10 10 10 10 9 10 13 13 13 16 17 16 11 8 7 5 4 4 5 4 4 4 5 4 4 3 4 6 8 9 11 14 14 14 14 16 19 21 20 19 21 23 23 21 22 28 26 24 27 37 41 40 41 39 42 43 41 40 39
15 15 15 16 16 15 14 13 12 13 13 13 13 12 11 11 11 12 14 14 13 11 12 12 11 10 10 11 12 11 12 10 13 13 14 17 18 17 11 9 7 4 4 3 3 4 5 5 4 3 2 4 7 10 12 13 15 16 14 13 17 20 25 28 27 26 26 29 29 27 25 28 31 30 34 43 48 49 48 42 40 43 41 37 37
15 16 15 14 14 14 14 13 12 12 11 11 10 8 8 8 8 11 12 12 12 14 14 13 12 11 11 12 12 10 11 11 13 12 15 17 19 15 11 8 7 6 5 4 4 5 5 4 4 3 3 5 8 14 15 16 17 16 16 15 16 24 30 32 30 28 29 31 32 32 32 34 38 39 40 44 50 54 48 37 37 43 41 38 37
17 15 15 14 14 13 13 11 10 10 9 8 7 6 6 6 7 10 9 10 12 13 12 15 15 15 14 13 12 12 12 13 14 13 15 18 18 13 11 11 8 7 5 5 5 5 5 4 4 4 5 6 10 15 18 20 18 18 20 19 19 25 34 38 31 28 33 37 39 40 39 38 39 40 42 45 49 55 57 43 40 47 44 43 44
18 17 15 15 14 13 12 11 10 9 9 7 6 5 5 7 7 10 9 10 11 12 15 15 15 16 15 14 15 16 17 15 15 14 15 18 17 14 13 12 8 7 7 7 8 7 6 2 4 4 5 7 11 17 20 25 23 24 24 23 22 26 34 44 34 28 34 36 36 38 38 38 39 40 41 41 44 53 62 57 52 55 54 52 50
19 17 16 15 15 14 13 12 11 9 9 7 7 6 7 8 9 11 11 11 11 14 15 16 16 17 17 17 15 15 17 16 16 15 16 18 16 13 14 12 11 10 12 10 10 10 9 9 5 6 7 8 11 16 21 27 27 27 29 29 26 26 35 51 38 29 27 27 32 34 33 36 38 40 41 43 45 53 60 58 55 55 56 54 52
22 21 20 18 17 16 15 13 12 11 9 9 10 9 10 13 14 14 12 12 11 13 14 17 17 18 19 18 18 17 17 17 18 17 18 18 18 15 16 15 13 11 13 13 14 13 13 12 11 10 9 9 11 16 20 27 28 28 32 32 30 28 42 49 43 36 30 29 27 31 33 36 38 40 40 41 45 51 56 57 55 55 54 52 51
26 23 22 20 19 18 17 15 13 13 13 12 12 12 14 13 14 13 13 13 11 11 12 13 15 16 19 19 17 16 18 18 18 20 19 19 18 18 16 14 15 16 16 16 17 16 16 16 15 13 14 14 14 16 18 23 27 29 33 35 34 43 52 48 41 39 35 33 31 32 34 36 35 36 37 39 41 45 49 52 52 53 53 52 52
28 26 23 21 20 19 18 17 16 16 17 18 18 16 15 15 15 14 15 13 11 10 11 12 12 13 17 18 17 15 17 17 19 21 20 19 20 21 17 16 18 19 17 17 18 18 16 16 17 16 16 17 18 20 21 23 28 33 34 36 35 48 51 48 39 35 35 37 36 35 35 36 37 38 40 41 40 41 44 46 50 52 53 53 52
32 29 26 23 22 21 21 19 19 21 20 19 18 17 18 18 17 17 16 14 13 11 12 13 13 12 13 15 16 17 18 19 18 20 20 21 22 22 19 16 19 20 18 16 18 18 19 20 20 20 21 22 24 26 26 28 32 34 34 39 40 53 60 50 41 38 36 39 41 38 38 41 42 43 43 44 43 43 43 44 44 48 51 52 51
35 32 30 27 25 25 23 22 22 23 22 22 21 20 21 21 21 21 20 18 16 14 15 16 16 14 12 12 13 15 18 19 20 19 23 23 23 24 21 16 18 20 19 19 21 22 24 25 27 31 32 34 33 33 31 34 36 36 38 40 51 60 57 56 47 45 43 42 43 43 42 43 44 45 45 45 44 43 44 43 43 44 44 43 40
39 35 33 32 30 28 27 26 24 25 26 26 25 24 23 24 23 23 23 22 20 18 18 19 18 16 14 12 12 15 17 20 21 22 22 25 25 24 22 19 16 17 20 21 22 30 36 38 37 36 37 40 40 40 38 38 38 40 43 49 56 54 57 55 53 50 50 48 46 44 43 45 46 45 45 44 42 42 nan nan nan nan nan nan 35
43 40 38 37 35 36 34 32 31 29 29 29 27 27 27 27 25 25 25 24 23 22 21 21 20 19 17 15 15 15 18 20 20 23 25 24 25 23 23 21 19 19 19 24 37 38 36 36 37 38 39 38 36 37 38 41 43 45 49 53 52 53 55 56 54 54 52 50 47 46 45 45 44 43 nan nan nan nan nan nan nan nan nan nan nan
45 44 41 40 41 40 37 37 37 35 33 32 31 31 31 30 29 28 27 27 27 26 25 24 24 24 21 19 19 19 19 21 22 24 27 27 27 27 25 23 22 26 26 24 23 28 31 32 35 36 38 39 42 43 45 46 49 50 50 51 53 54 54 55 55 54 53 50 48 nan nan nan nan nan nan nan nan nan nan nan nan nan nan nan nan
49 49 47 45 44 43 42 39 39 38 37 36 35 35 34 34 32 31 30 30 30 30 29 27 26 26 25 24 23 22 22 23 24 24 26 26 26 28 29 29 30 30 29 29 33 33 33 35 37 37 40 42 43 44 46 48 50 51 52 53 53 54 54 54 53 nan nan nan nan nan nan nan nan nan nan nan nan nan nan nan nan nan nan nan nan
51 52 52 50 48 47 46 45 44 43 42 46 47 46 43 38 36 36 37 36 34 34 33 31 31 30 29 28 27 25 25 25 22 24 24 26 28 30 30 29 30 31 31 38 39 38 38 38 38 40 42 44 45 46 48 50 53 54 56 56 56 56 56 nan nan nan nan nan nan nan nan nan nan nan nan nan nan nan nan nan nan nan nan nan nan
50 51 51 51 51 49 49 48 48 48 49 50 50 52 55 53 51 46 46 49 49 45 41 36 35 35 32 30 31 27 26 25 32 31 29 29 28 29 30 32 33 36 40 42 40 40 39 42 43 45 45 46 48 49 51 53 55 56 57 57 57 57 nan nan nan nan nan nan nan nan nan nan nan nan nan nan nan nan nan nan nan nan nan nan nan
46 46 48 49 49 49 49 50 51 52 51 52 51 52 52 57 60 58 53 51 52 52 50 48 44 39 37 35 38 42 39 37 36 34 34 34 35 37 39 41 42 43 45 45 42 42 43 45 46 47 49 49 51 52 54 56 57 57 57 57 nan nan nan nan nan nan nan nan nan nan nan nan nan nan nan nan nan nan nan nan nan nan nan nan nan
45 44 45 45 46 47 47 48 48 50 50 50 50 49 51 52 52 56 55 53 55 54 53 50 46 41 36 39 42 40 42 42 43 42 41 43 43 44 45 46 46 47 46 48 47 45 46 48 48 49 50 52 53 55 56 57 58 57 nan nan nan nan nan nan nan nan nan nan nan nan nan nan nan nan nan nan nan nan nan nan nan nan nan nan nan
42 42 42 42 42 42 42 41 41 42 43 44 43 43 43 42 46 45 47 50 53 54 53 51 48 46 45 45 42 43 44 46 48 49 48 48 50 51 51 52 51 51 53 49 48 48 48 49 50 50 52 53 54 56 57 58 58 nan nan nan nan nan nan nan nan nan nan nan nan nan nan nan nan nan nan nan nan nan nan nan nan nan nan nan nan
38 36 36 37 37 36 36 35 34 34 35 35 35 35 35 36 38 39 39 39 42 45 49 50 48 45 45 45 47 50 51 51 51 52 52 52 54 55 55 52 52 49 48 50 51 50 51 52 52 53 53 55 56 57 57 nan nan nan nan nan nan nan nan nan nan nan nan nan nan nan nan nan nan nan nan nan nan nan nan nan nan nan nan nan nan
39 37 38 37 34 34 33 33 33 32 32 31 32 31 33 35 35 35 34 35 37 37 36 39 43 44 40 41 45 48 49 50 51 51 52 53 54 55 57 54 52 51 51 51 51 52 53 54 54 55 56 57 57 57 nan nan nan nan nan nan nan nan nan nan nan nan nan nan nan nan nan nan nan nan nan nan nan nan nan nan nan nan nan nan nan
40 38 36 36 35 34 33 33 33 33 33 33 33 34 35 35 35 34 36 37 37 37 38 38 38 42 48 48 46 48 49 48 49 49 49 51 51 51 52 51 52 52 53 53 54 55 55 56 57 58 57 57 57 nan nan nan nan nan nan nan nan nan nan nan nan nan nan nan nan nan nan nan nan nan nan nan nan nan nan nan nan nan nan nan nan
41 39 38 36 35 36 36 37 36 36 36 37 37 37 36 36 37 37 37 38 40 40 41 40 42 44 45 44 46 49 49 50 50 49 47 44 44 47 49 51 53 54 55 55 56 57 57 57 58 58 57 nan nan nan nan nan nan nan nan nan nan nan nan nan nan nan nan nan nan nan nan nan nan nan nan nan nan nan nan nan nan nan nan nan nan
39 39 38 38 38 39 40 39 39 39 40 39 39 39 39 39 39 39 40 41 41 42 42 41 43 44 46 43 41 43 47 49 53 51 49 49 48 48 50 51 53 54 54 54 54 56 57 56 56 nan nan nan nan nan nan nan nan nan nan nan nan nan nan nan nan nan nan nan nan nan nan nan nan nan nan nan nan nan nan nan nan nan nan nan nan
38 39 41 41 42 42 41 41 41 41 41 41 41 41 43 42 42 42 42 43 43 43 43 44 45 46 46 45 45 44 47 47 46 47 48 48 48 49 52 53 52 54 54 54 54 55 56 nan nan nan nan nan nan nan nan nan nan nan nan nan nan nan nan nan nan nan nan nan nan nan nan nan nan nan nan nan nan nan nan nan nan nan nan nan nan
35 37 40 43 43 44 43 43 44 43 42 42 43 43 43 43 43 43 44 44 45 45 45 47 48 48 46 45 44 43 47 48 48 49 51 52 51 51 53 53 54 55 55 56 56 57 nan nan nan nan nan nan nan nan nan nan nan nan nan nan nan nan nan nan nan nan nan nan nan nan nan nan nan nan nan nan nan nan nan nan nan nan nan nan nan
34 37 39 41 43 44 44 45 45 46 46 46 45 45 44 44 45 46 47 47 48 49 51 51 51 49 46 47 50 52 53 52 51 51 52 53 54 55 55 54 54 54 54 55 nan nan nan nan nan nan nan nan nan nan nan nan nan nan nan nan nan nan nan nan nan nan nan nan nan nan nan nan nan nan nan nan nan nan nan nan nan nan nan nan nan
37 36 40 42 43 44 45 45 45 46 47 48 47 47 48 48 50 50 51 52 52 52 53 54 54 51 50 55 57 60 60 57 56 55 56 57 59 59 57 55 53 53 nan nan nan nan nan nan nan nan nan nan nan nan nan nan nan nan nan nan nan nan nan nan nan nan nan nan nan nan nan nan nan nan nan nan nan nan nan nan nan nan nan nan nan
41 36 38 42 45 45 46 46 47 48 48 48 49 49 50 51 51 53 55 56 56 54 53 56 56 55 56 59 60 63 62 63 62 61 60 59 60 61 nan nan nan nan nan nan nan nan nan nan nan nan nan nan nan nan nan nan nan nan nan nan nan nan nan nan nan nan nan nan nan nan nan nan nan nan nan nan nan nan nan nan nan nan nan nan nan
47 42 38 40 44 48 49 48 49 50 50 51 51 51 52 53 54 55 57 59 60 59 59 59 59 61 62 63 63 63 62 60 60 59 58 56 58 60 nan nan nan nan nan nan nan nan nan nan nan nan nan nan nan nan nan nan nan nan nan nan nan nan nan nan nan nan nan nan nan nan nan nan nan nan nan nan nan nan nan nan nan nan nan nan nan
54 50 43 42 44 48 51 50 50 52 54 54 54 55 55 56 57 58 60 61 63 63 63 64 64 66 68 66 62 59 55 51 51 52 53 54 57 59 nan nan nan nan nan nan nan nan nan nan nan nan nan nan nan nan nan nan nan nan nan nan nan nan nan nan nan nan nan nan nan nan nan nan nan nan nan nan nan nan nan nan nan nan nan nan nan
58 56 51 46 47 49 52 53 53 54 54 55 56 57 58 60 61 62 63 65 66 68 67 64 62 62 61 59 57 57 54 53 53 54 56 57 59 59 nan nan nan nan nan nan nan nan nan nan nan nan nan nan nan nan nan nan nan nan nan nan nan nan nan nan nan nan nan nan nan nan nan nan nan nan nan nan nan nan nan nan nan nan nan nan nan
62 59 57 55 53 52 54 56 57 58 59 59 59 59 60 61 63 65 67 69 69 70 72 70 67 66 65 64 63 61 61 60 60 60 60 59 59 nan nan nan nan nan nan nan nan nan nan nan nan nan nan nan nan nan nan nan nan nan nan nan nan nan nan nan nan nan nan nan nan nan nan nan nan nan nan nan nan nan nan nan nan nan nan nan nan
64 63 61 58 56 55 55 56 61 62 62 62 62 63 63 65 67 67 66 68 71 73 74 75 75 72 71 71 69 68 67 66 65 65 65 65 nan nan nan nan nan nan nan nan nan nan nan nan nan nan nan nan nan nan nan nan nan nan nan nan nan nan nan nan nan nan nan nan nan nan nan nan nan nan nan nan nan nan nan nan nan nan nan nan nan
64 65 64 62 58 56 56 57 57 60 62 63 64 67 67 69 71 70 71 70 70 71 73 77 78 78 76 71 68 66 66 67 68 69 70 nan nan nan nan nan nan nan nan nan nan nan nan nan nan nan nan nan nan nan nan nan nan nan nan nan nan nan nan nan nan nan nan nan nan nan nan nan nan nan nan nan nan nan nan nan nan nan nan nan nan
63 64 64 63 59 58 56 58 60 61 63 65 68 70 72 75 77 77 76 74 74 74 74 78 80 80 76 71 69 69 69 68 67 nan nan nan nan nan nan nan nan nan nan nan nan nan nan nan nan nan nan nan nan nan nan nan nan nan nan nan nan nan nan nan nan nan nan nan nan nan nan nan nan nan nan nan nan nan nan nan nan nan nan nan nan
nan 63 63 62 61 59 59 62 65 64 64 62 61 62 67 74 77 77 76 74 nan nan nan 69 69 70 70 nan nan nan nan nan nan nan nan nan nan nan nan nan nan nan nan nan nan nan nan nan nan nan nan nan nan nan nan nan nan nan nan nan nan nan nan nan nan nan nan nan nan nan nan nan nan nan nan nan nan nan nan nan nan nan nan nan nan
Wind_Direction
225 210 205 198 198 195 194 198 203 208 205 198 194 198 205 208 212 217 224 222 230 224 213 216 226 229 245 235 234 255 288 269 268 277 300 327 331 338 331 341 357 4 359 7 10 15 22 28 28 23 9 16 15 358 355 10 23 nan nan nan nan nan nan nan nan nan 82 nan nan nan nan nan nan nan 28 25 20 12 11 8 5 1 2 3 3
230 225 216 207 204 202 200 203 208 212 208 198 193 200 207 211 217 226 229 221 227 217 213 213 217 244 248 276 278 278 275 286 275 273 285 305 313 299 314 322 335 345 332 355 2 4 11 22 27 16 359 10 10 9 2 357 12 34 47 nan nan nan nan nan nan nan 87 nan nan nan 44 nan 40 nan nan 18 19 3 2 356 352 355 357 360 358
233 229 222 215 211 208 209 209 213 216 211 201 198 203 208 213 221 225 224 220 215 211 210 211 224 239 251 263 277 277 286 279 279 282 292 306 304 298 304 312 322 325 326 342 353 350 6 12 24 14 350 358 3 8 0 11 8 34 47 44 52 47 nan nan nan 65 71 80 37 nan 29 14 13 18 7 7 5 352 354 349 348 345 349 356 357
228 232 227 219 217 214 213 213 216 215 211 204 203 204 209 214 219 217 217 216 214 209 212 215 223 240 250 258 268 276 283 282 281 283 299 303 298 309 302 308 311 312 318 326 334 341 358 359 22 16 351 351 356 355 0 8 19 37 55 56 48 50 26 nan nan 50 55 66 51 23 23 12 8 359 354 350 351 349 346 340 334 341 346 348 353
227 230 233 229 222 215 213 215 216 217 211 207 205 208 210 214 215 212 213 212 211 215 214 220 227 239 247 261 270 278 290 294 292 288 290 291 302 295 300 294 300 305 307 318 320 334 341 354 22 7 336 340 345 357 355 14 24 37 64 69 62 52 28 31 38 nan 43 48 54 14 2 8 1 349 337 344 345 341 336 335 333 338 341 345 346
224 229 230 230 222 219 215 213 213 215 213 209 209 209 211 212 212 208 210 210 212 215 220 225 233 243 249 262 272 280 284 288 296 298 297 297 298 295 287 280 280 280 284 294 303 311 323 345 7 352 330 333 343 355 5 27 28 48 64 74 64 36 42 44 38 38 34 45 39 41 1 3 7 352 329 330 337 336 331 329 331 337 337 341 346
221 224 227 226 222 217 214 211 211 211 211 208 209 210 210 212 212 209 211 211 213 214 220 228 231 240 248 259 270 279 285 289 291 297 303 308 310 299 290 284 275 268 269 276 285 293 312 325 345 336 334 325 334 356 17 35 43 62 68 76 59 28 36 39 32 31 29 35 32 12 5 347 344 357 323 322 330 331 329 332 339 334 332 339 343
219 220 223 220 217 214 209 208 206 205 206 207 209 211 211 211 210 210 213 212 213 215 220 226 229 235 243 252 260 267 278 283 291 294 299 304 300 295 291 285 281 275 267 265 270 280 300 318 337 325 320 319 328 347 3 48 58 72 71 62 39 16 25 27 20 17 16 17 14 25 1 353 332 326 311 312 319 325 324 327 341 343 334 332 338
219 219 219 215 210 208 206 203 200 200 203 206 209 210 211 212 213 212 213 212 212 215 219 225 230 235 240 248 255 264 269 277 277 283 293 302 295 293 290 287 284 277 269 264 257 257 264 268 277 292 315 351 4 10 20 32 43 56 61 36 15 359 2 1 3 355 352 351 1 352 351 356 336 321 320 320 324 333 318 321 332 334 329 329 336
216 214 213 210 207 207 204 202 200 201 203 206 209 211 212 215 215 213 212 212 215 219 223 230 237 243 248 254 258 260 263 260 276 308 306 297 294 286 283 283 279 267 262 257 253 255 253 246 237 45 19 13 17 29 39 40 38 36 46 22 13 350 346 347 343 337 331 337 336 333 338 351 333 322 326 325 322 319 322 324 328 331 321 324 332
212 211 208 208 209 207 205 202 204 204 206 208 211 214 214 215 213 211 212 216 222 227 231 240 247 253 262 264 264 263 261 262 297 304 321 326 301 288 283 275 265 259 259 258 246 246 241 235 217 201 279 18 39 42 40 38 34 36 41 38 15 352 337 333 331 323 323 325 324 323 331 344 334 323 326 323 319 323 325 324 325 320 319 320 327
205 204 206 210 209 208 204 206 205 205 209 210 214 215 213 212 210 212 217 225 229 232 237 247 253 259 263 268 270 268 267 282 299 310 323 327 314 291 274 267 262 256 254 253 242 240 229 212 214 212 220 319 347 18 29 31 24 22 29 31 25 6 347 337 331 317 318 322 330 334 334 335 336 326 323 319 323 320 319 320 319 317 319 320 322
203 202 206 208 208 208 207 207 206 206 208 210 212 213 211 211 214 219 225 232 235 241 246 254 259 263 265 269 269 273 265 286 305 317 322 322 320 304 279 278 267 257 254 249 242 227 197 190 189 193 198 50 23 339 322 336 348 6 13 22 19 2 345 340 333 327 319 326 341 346 334 330 338 338 325 324 318 317 313 318 319 318 319 320 326
201 201 203 203 205 207 207 206 204 203 206 208 211 213 215 219 224 227 230 235 239 243 250 258 261 262 264 266 264 261 266 280 304 316 318 316 314 308 285 287 271 259 256 243 227 207 173 176 181 180 218 265 293 303 306 316 310 316 328 330 331 339 330 328 329 338 342 342 345 350 341 329 338 337 328 322 323 324 322 328 326 325 328 333 337
197 200 199 199 202 202 203 200 198 201 206 211 216 218 224 226 234 238 240 244 250 252 255 257 258 261 264 266 261 259 258 286 295 309 309 309 312 307 282 270 256 250 246 230 185 171 174 182 170 189 226 283 299 307 307 308 306 309 324 334 326 317 307 307 314 321 335 337 346 349 348 337 336 339 333 327 331 330 329 336 338 332 331 333 337
189 194 193 195 197 197 200 197 195 202 209 215 220 221 227 236 245 247 245 245 246 246 247 250 253 255 259 261 262 262 259 285 293 299 302 301 308 290 277 269 256 248 244 229 196 190 189 186 192 221 265 297 314 327 322 307 303 318 323 327 323 308 305 311 321 333 345 349 343 343 341 339 336 338 337 336 335 330 321 329 339 324 324 336 340
186 190 189 191 191 192 193 190 190 196 205 211 213 215 223 234 240 245 250 249 249 249 251 247 244 245 251 258 265 259 255 272 287 294 296 302 292 278 272 257 255 252 242 230 210 197 204 215 238 249 281 297 312 320 321 315 310 320 318 321 318 307 300 302 316 339 360 2 353 349 349 342 341 345 350 354 345 330 320 334 344 327 327 333 337
188 191 189 191 188 187 185 185 187 193 204 210 215 218 231 240 253 256 261 261 257 256 252 248 247 247 251 254 257 255 254 266 285 290 296 303 300 282 267 263 263 254 234 225 220 215 218 260 272 275 289 297 312 319 319 313 308 311 312 314 314 307 303 293 296 334 3 358 346 342 342 341 346 352 353 351 349 333 328 337 343 330 332 336 337
192 193 193 194 190 189 189 191 193 201 209 213 222 229 240 252 257 259 256 258 258 254 256 253 252 251 251 250 259 264 258 265 285 293 299 303 300 273 272 270 262 251 240 228 231 228 228 243 285 293 288 297 314 314 321 311 307 307 305 304 308 309 304 302 323 343 349 332 325 327 333 340 340 339 342 348 346 334 332 336 332 331 331 332 332
195 195 197 197 195 195 197 200 203 211 214 218 226 232 236 238 246 255 260 260 262 259 261 258 260 256 257 257 254 260 264 264 273 291 294 300 308 281 272 271 261 253 246 241 236 238 241 245 260 288 306 311 311 314 313 315 306 302 300 302 306 314 301 312 328 339 339 332 328 329 335 327 327 331 332 334 333 331 330 331 331 329 329 329 328
198 197 199 200 200 201 205 210 217 218 221 226 232 235 239 245 251 259 261 263 270 274 275 270 267 263 261 263 260 260 261 264 267 284 290 298 304 297 274 273 258 253 250 248 246 243 246 253 254 274 298 307 313 310 306 305 305 302 305 307 311 297 302 310 323 339 336 331 326 329 328 325 327 327 328 328 330 328 327 327 326 326 326 327 326
202 203 204 204 206 209 213 217 223 225 226 230 232 234 241 247 250 257 256 264 279 290 292 290 285 276 267 267 266 261 262 274 261 275 289 295 300 310 283 267 261 256 254 249 248 245 247 252 256 269 285 288 293 297 300 307 311 305 311 313 307 299 301 304 313 324 328 323 325 326 325 322 323 325 327 330 332 330 326 324 324 326 328 328 327
206 208 208 207 209 213 218 227 231 231 234 240 243 243 244 249 251 254 259 263 270 281 289 290 292 290 278 272 267 264 260 264 282 272 285 296 302 306 309 277 270 262 255 251 252 248 248 252 253 261 275 283 289 295 302 309 303 305 311 310 311 297 299 305 319 327 327 323 321 323 322 322 325 326 326 327 329 326 324 324 326 327 327 326 326
213 212 211 211 213 215 221 227 232 235 241 243 245 245 247 250 252 254 258 261 262 267 269 276 280 287 288 284 280 273 266 263 271 285 279 295 298 306 307 299 278 265 261 250 250 249 248 250 257 264 270 276 283 288 295 298 297 301 305 307 299 302 306 312 320 325 323 319 318 318 319 319 319 321 322 323 325 322 321 322 324 326 324 320 320
218 216 214 215 216 218 222 227 230 234 238 243 244 245 247 252 253 254 257 260 262 263 264 269 277 281 283 284 282 278 273 266 262 271 285 287 298 302 305 302 295 286 265 256 250 248 252 260 266 271 275 277 282 287 289 295 299 298 301 298 300 302 306 313 317 315 315 316 316 314 315 315 316 318 319 321 323 323 nan nan nan nan nan nan 323
222 221 219 218 219 221 223 224 227 230 234 238 243 245 249 252 254 255 258 260 261 262 261 262 264 267 269 267 265 266 268 266 263 261 265 274 281 294 302 302 301 301 285 254 254 260 261 268 274 276 277 278 279 280 281 283 290 292 295 298 300 303 307 311 312 313 315 316 315 314 313 312 314 316 nan nan nan nan nan nan nan nan nan nan nan
228 226 225 222 224 226 227 228 229 231 233 235 239 242 245 248 252 254 258 260 260 261 260 259 256 256 259 258 256 256 260 264 262 260 261 264 267 274 277 274 278 271 270 271 270 270 270 272 270 273 272 274 274 276 277 281 283 285 287 291 296 301 306 309 311 313 314 313 313 nan nan nan nan nan nan nan nan nan nan nan nan nan nan nan nan
227 226 227 226 227 229 230 232 234 233 235 238 239 241 244 247 250 255 259 261 263 264 264 262 260 258 256 256 256 254 254 257 260 260 261 264 264 266 268 269 272 274 274 273 272 272 273 274 274 274 275 274 275 274 276 279 282 284 287 289 291 293 296 300 303 nan nan nan nan nan nan nan nan nan nan nan nan nan nan nan nan nan nan nan nan
226 226 225 229 230 230 231 232 233 234 236 237 233 234 236 240 243 246 249 251 256 260 263 264 262 258 255 256 257 255 253 255 259 266 266 269 268 264 264 267 268 269 270 270 267 270 273 274 276 274 274 276 276 277 279 281 282 284 286 288 289 291 294 nan nan nan nan nan nan nan nan nan nan nan nan nan nan nan nan nan nan nan nan nan nan
230 227 227 228 230 233 234 234 236 237 238 240 241 239 239 243 240 241 247 240 241 243 252 260 261 262 260 256 255 258 256 253 252 265 265 269 268 270 263 262 265 265 270 277 271 269 271 272 272 275 275 276 278 280 281 282 284 285 287 288 290 292 nan nan nan nan nan nan nan nan nan nan nan nan nan nan nan nan nan nan nan nan nan nan nan
232 231 230 230 232 237 239 240 240 241 243 245 246 249 248 244 244 245 247 248 249 250 252 252 254 264 267 261 251 244 244 252 264 269 269 271 270 268 267 268 270 273 276 271 267 271 272 273 273 275 277 278 279 281 282 283 284 287 288 289 nan nan nan nan nan nan nan nan nan nan nan nan nan nan nan nan nan nan nan nan nan nan nan nan nan
232 231 230 231 234 238 242 244 246 248 249 250 253 254 255 254 251 247 247 250 252 253 252 253 256 261 266 268 266 252 249 253 261 262 262 263 264 264 265 268 271 275 276 272 268 270 272 274 276 277 279 279 280 281 282 283 285 287 nan nan nan nan nan nan nan nan nan nan nan nan nan nan nan nan nan nan nan nan nan nan nan nan nan nan nan
232 231 230 231 234 239 241 243 246 249 252 254 254 256 258 259 258 254 246 247 251 251 248 247 250 259 265 268 268 267 268 266 265 264 264 263 263 263 264 266 269 272 271 268 271 272 272 273 275 276 278 280 282 283 284 285 286 nan nan nan nan nan nan nan nan nan nan nan nan nan nan nan nan nan nan nan nan nan nan nan nan nan nan nan nan
230 228 229 231 234 237 240 243 244 245 248 251 253 254 254 254 253 255 255 253 250 248 247 245 243 246 253 262 267 267 268 268 268 268 269 268 268 267 265 262 261 260 265 272 273 274 274 275 276 278 280 282 283 285 286 nan nan nan nan nan nan nan nan nan nan nan nan nan nan nan nan nan nan nan nan nan nan nan nan nan nan nan nan nan nan
227 225 226 230 230 235 239 242 245 248 249 251 252 255 254 253 255 256 257 259 257 254 251 247 243 242 251 257 263 268 270 271 272 273 273 273 271 271 268 265 263 264 263 267 270 274 276 277 279 280 282 283 284 286 nan nan nan nan nan nan nan nan nan nan nan nan nan nan nan nan nan nan nan nan nan nan nan nan nan nan nan nan nan nan nan
231 231 229 231 234 236 239 242 245 248 251 251 252 253 253 256 258 258 256 254 255 256 253 250 252 251 254 255 259 265 268 270 273 274 276 277 277 271 266 266 266 265 267 269 271 272 274 276 278 280 282 283 284 nan nan nan nan nan nan nan nan nan nan nan nan nan nan nan nan nan nan nan nan nan nan nan nan nan nan nan nan nan nan nan nan
235 235 234 234 238 240 241 242 244 247 248 251 253 253 254 255 256 257 256 257 256 256 258 261 260 257 255 256 261 264 267 270 271 272 273 271 268 265 268 268 269 269 269 270 271 273 274 276 278 280 281 nan nan nan nan nan nan nan nan nan nan nan nan nan nan nan nan nan nan nan nan nan nan nan nan nan nan nan nan nan nan nan nan nan nan
241 239 238 239 241 242 243 244 246 248 249 251 253 254 253 253 254 256 256 257 260 262 263 263 263 264 267 266 266 266 269 269 267 263 262 262 262 264 267 268 270 271 271 271 272 274 275 277 278 nan nan nan nan nan nan nan nan nan nan nan nan nan nan nan nan nan nan nan nan nan nan nan nan nan nan nan nan nan nan nan nan nan nan nan nan
245 244 244 243 243 245 246 247 247 248 248 250 252 255 257 258 257 258 258 260 262 261 263 265 264 265 268 270 271 272 273 270 269 270 269 267 265 266 269 271 270 270 271 271 272 273 274 nan nan nan nan nan nan nan nan nan nan nan nan nan nan nan nan nan nan nan nan nan nan nan nan nan nan nan nan nan nan nan nan nan nan nan nan nan nan
248 249 251 253 249 248 248 248 248 248 249 251 252 253 256 259 260 261 263 264 264 263 262 263 265 266 267 269 269 268 268 267 268 271 272 271 269 267 268 270 271 272 272 273 273 274 nan nan nan nan nan nan nan nan nan nan nan nan nan nan nan nan nan nan nan nan nan nan nan nan nan nan nan nan nan nan nan nan nan nan nan nan nan nan nan
248 253 255 254 254 252 249 249 249 249 249 250 251 253 255 258 260 262 264 264 264 265 267 266 267 269 269 272 271 269 269 269 269 268 268 267 266 266 268 269 271 271 270 270 nan nan nan nan nan nan nan nan nan nan nan nan nan nan nan nan nan nan nan nan nan nan nan nan nan nan nan nan nan nan nan nan nan nan nan nan nan nan nan nan nan
248 255 257 258 259 257 254 252 252 252 251 251 252 253 255 255 255 256 258 260 260 262 264 264 263 262 262 266 268 270 269 267 265 262 260 261 261 261 262 265 267 268 nan nan nan nan nan nan nan nan nan nan nan nan nan nan nan nan nan nan nan nan nan nan nan nan nan nan nan nan nan nan nan nan nan nan nan nan nan nan nan nan nan nan nan
246 252 259 261 258 258 259 257 256 255 255 255 255 255 255 256 257 259 260 260 261 261 260 262 263 262 259 256 258 258 261 262 262 259 258 258 259 258 nan nan nan nan nan nan nan nan nan nan nan nan nan nan nan nan nan nan nan nan nan nan nan nan nan nan nan nan nan nan nan nan nan nan nan nan nan nan nan nan nan nan nan nan nan nan nan
245 249 257 261 258 255 255 257 257 256 256 258 258 258 258 258 257 257 259 261 262 262 262 263 263 263 262 259 257 257 256 252 251 251 254 256 258 258 nan nan nan nan nan nan nan nan nan nan nan nan nan nan nan nan nan nan nan nan nan nan nan nan nan nan nan nan nan nan nan nan nan nan nan nan nan nan nan nan nan nan nan nan nan nan nan
246 248 256 266 265 258 254 251 254 257 257 258 258 258 258 259 260 261 261 263 263 263 263 264 264 266 266 266 265 264 259 251 249 250 253 255 257 259 nan nan nan nan nan nan nan nan nan nan nan nan nan nan nan nan nan nan nan nan nan nan nan nan nan nan nan nan nan nan nan nan nan nan nan nan nan nan nan nan nan nan nan nan nan nan nan
248 249 253 263 268 262 255 251 250 252 253 253 254 255 257 259 260 262 263 263 264 265 264 264 266 267 267 266 265 262 260 258 257 258 259 259 261 263 nan nan nan nan nan nan nan nan nan nan nan nan nan nan nan nan nan nan nan nan nan nan nan nan nan nan nan nan nan nan nan nan nan nan nan nan nan nan nan nan nan nan nan nan nan nan nan
251 252 256 262 263 257 253 253 252 253 253 252 253 253 255 257 258 259 260 261 263 264 265 264 264 263 262 262 263 262 261 260 260 259 260 262 264 nan nan nan nan nan nan nan nan nan nan nan nan nan nan nan nan nan nan nan nan nan nan nan nan nan nan nan nan nan nan nan nan nan nan nan nan nan nan nan nan nan nan nan nan nan nan nan nan
255 257 261 263 260 253 248 248 252 253 254 255 255 255 255 255 256 255 255 258 261 263 264 265 265 264 264 262 262 261 260 261 260 260 261 263 nan nan nan nan nan nan nan nan nan nan nan nan nan nan nan nan nan nan nan nan nan nan nan nan nan nan nan nan nan nan nan nan nan nan nan nan nan nan nan nan nan nan nan nan nan nan nan nan nan
259 261 262 259 253 247 246 247 248 252 255 257 258 258 257 256 256 256 257 257 258 260 261 262 263 263 262 261 259 259 259 260 261 261 261 nan nan nan nan nan nan nan nan nan nan nan nan nan nan nan nan nan nan nan nan nan nan nan nan nan nan nan nan nan nan nan nan nan nan nan nan nan nan nan nan nan nan nan nan nan nan nan nan nan nan
261 261 259 253 247 245 248 251 255 258 260 261 261 261 260 259 258 257 258 258 259 260 259 258 259 259 258 258 259 260 261 260 259 nan nan nan nan nan nan nan nan nan nan nan nan nan nan nan nan nan nan nan nan nan nan nan nan nan nan nan nan nan nan nan nan nan nan nan nan nan nan nan nan nan nan nan nan nan nan nan nan nan nan nan nan
nan 257 252 248 247 249 252 256 261 265 268 266 262 257 256 257 257 257 256 256 nan nan nan 253 254 254 253 nan nan nan nan nan nan nan nan nan nan nan nan nan nan nan nan nan nan nan nan nan nan nan nan nan nan nan nan nan nan nan nan nan nan nan nan nan nan nan nan nan nan nan nan nan nan nan nan nan nan nan nan nan nan nan nan nan nan